Regional Weather Roundup
Issued by NWS Goodland, KS

Home | Current Version | Previous Version | Graphics & Text | Print | Product List | Glossary On
Versions: 1 2 3 4 5 6 7 8 9 10 11 12 13 14 15 16 17 18 19 20 21 22 23 24 25 26 27 28 29 30 31 32 33 34 35 36 37 38 39 40 41 42 43 44 45 46 47 48 49 50
000
ASUS43 KGLD 280508
RWRGLD

GOODLAND FORECAST AREA HOURLY WEATHER ROUNDUP
NATIONAL WEATHER SERVICE GOODLAND KS
1100 PM MDT THU JUL 27 2017

...OFFICIAL OBSERVATIONS...

CITY           SKY/WX    TMP DP  RH WIND       PRES   REMARKS
GOODLAND KS    CLOUDY    69  64  84 S8        30.10
HILL CITY KS   CLEAR     70  62  76 E6        30.07
IMPERIAL NEB   CLOUDY    72  57  59 E13       30.10
MCCOOK NEB     PTCLDY    68  60  75 E7        30.07
AKRON CO       CLOUDY    73  61  65 S13       30.12
BURLINGTON CO  PTCLDY    67  62  84 S9        30.14
LIMON CO       CLEAR     67  65  93 S12       30.19
$$

...UNOFFICIAL OBSERVATIONS...

CITY           SKY/WX    TMP DP  RH WIND       PRES   REMARKS
LENORA KS        N/A     69  32  25 MISG        N/A
NORTON KS      CLEAR     64  57  77 E5        30.06F
SHARON SPRINGS   N/A     70  65  83 SE7         N/A
TRENTON NEB      N/A     68  32  26 E5          N/A
KIT CARSON CO    N/A     67  61  81 CALM        N/A
YUMA CO        FAIR      70  55  60 S13       30.08F
$$




USA.gov is the U.S. government's official web portal to all federal, state and local government web resources and services.